Stündliche Wetter Abbakumovo

Heute, 17 Juni, Donnerstag

Zeit Temperatur Niederschläge Wind Luftdruck Luftfeuchtigkeit
00:00 +12°C° 0 mm 1 m/S 746 mmHg 70%
01:00 +11°C° 0 mm 1 m/S 747 mmHg 73%
02:00 +11°C° 0 mm 1 m/S 747 mmHg 75%
03:00 +12°C° 0 mm 1 m/S 747 mmHg 73%
04:00 +12°C° 0 mm 0 m/S 747 mmHg 71%
05:00 +12°C° 0 mm 0 m/S 747 mmHg 69%
06:00 +15°C° 0 mm 0 m/S 748 mmHg 60%
07:00 +17°C° 0 mm 0 m/S 748 mmHg 52%
08:00 +19°C° 0 mm 0 m/S 748 mmHg 44%
09:00 +21°C° 0 mm 0 m/S 749 mmHg 40%
10:00 +22°C° 0 mm 0 m/S 749 mmHg 37%
11:00 +25°C° 0 mm 1 m/S 749 mmHg 33%
12:00 +26°C° 0 mm 1 m/S 749 mmHg 32%
13:00 +26°C° 0 mm 1 m/S 749 mmHg 32%
14:00 +27°C° 0 mm 1 m/S 749 mmHg 31%
15:00 +26°C° 0 mm 1 m/S 749 mmHg 32%
16:00 +26°C° 0 mm 1 m/S 749 mmHg 34%
17:00 +26°C° 0 mm 1 m/S 749 mmHg 35%
18:00 +24°C° 0 mm 1 m/S 749 mmHg 45%
19:00 +21°C° 0 mm 1 m/S 749 mmHg 55%
20:00 +19°C° 0 mm 1 m/S 749 mmHg 64%
21:00 +18°C° 0 mm 1 m/S 749 mmHg 66%
22:00 +16°C° 0 mm 1 m/S 749 mmHg 67%
23:00 +15°C° 0 mm 1 m/S 749 mmHg 69%

Morgen, 18 Juni, Freitag

Zeit Temperatur Niederschläge Wind Luftdruck Luftfeuchtigkeit
00:00 +15°C° 0 mm 1 m/S 750 mmHg 71%
01:00 +14°C° 0 mm 1 m/S 750 mmHg 74%
02:00 +14°C° 0 mm 1 m/S 750 mmHg 77%
03:00 +15°C° 0 mm 1 m/S 750 mmHg 77%
04:00 +15°C° 0 mm 1 m/S 750 mmHg 77%
05:00 +16°C° 0 mm 1 m/S 750 mmHg 77%
06:00 +19°C° 0 mm 1 m/S 750 mmHg 68%
07:00 +20°C° 0 mm 2 m/S 750 mmHg 60%
08:00 +23°C° 0 mm 2 m/S 750 mmHg 51%
09:00 +25°C° 0 mm 2 m/S 750 mmHg 47%
10:00 +26°C° 0 mm 2 m/S 750 mmHg 42%
11:00 +27°C° 0 mm 2 m/S 750 mmHg 38%
12:00 +28°C° 0 mm 2 m/S 750 mmHg 37%
13:00 +28°C° 0 mm 3 m/S 749 mmHg 36%
14:00 +29°C° 0 mm 3 m/S 749 mmHg 36%
15:00 +29°C° 0 mm 3 m/S 749 mmHg 39%
16:00 +28°C° 0 mm 3 m/S 749 mmHg 42%
17:00 +28°C° 0 mm 2 m/S 748 mmHg 44%
18:00 +26°C° 0 mm 2 m/S 748 mmHg 55%
19:00 +24°C° 0 mm 2 m/S 748 mmHg 65%
20:00 +21°C° 0 mm 2 m/S 749 mmHg 75%
21:00 +19°C° 0 mm 2 m/S 749 mmHg 78%
22:00 +18°C° 0 mm 2 m/S 749 mmHg 81%
23:00 +17°C° 0 mm 2 m/S 749 mmHg 84%

übermorgen, 19 Juni, Samstag

Zeit Temperatur Niederschläge Wind Luftdruck Luftfeuchtigkeit
00:00 +17°C° 0 mm 2 m/S 749 mmHg 86%
01:00 +16°C° 0 mm 2 m/S 749 mmHg 89%
02:00 +16°C° 0 mm 2 m/S 749 mmHg 91%
03:00 +16°C° 0 mm 2 m/S 749 mmHg 88%
04:00 +17°C° 0 mm 2 m/S 749 mmHg 86%
05:00 +17°C° 0 mm 2 m/S 749 mmHg 83%
06:00 +19°C° 0 mm 2 m/S 749 mmHg 74%
07:00 +21°C° 0 mm 2 m/S 749 mmHg 66%
08:00 +24°C° 0 mm 2 m/S 749 mmHg 58%
09:00 +25°C° 0 mm 2 m/S 749 mmHg 53%
10:00 +27°C° 0 mm 2 m/S 749 mmHg 48%
11:00 +28°C° 0 mm 2 m/S 749 mmHg 43%
12:00 +29°C° 0 mm 2 m/S 749 mmHg 41%
13:00 +29°C° 0 mm 2 m/S 748 mmHg 39%
14:00 +30°C° 0 mm 2 m/S 748 mmHg 38%
15:00 +30°C° 0 mm 2 m/S 748 mmHg 40%
16:00 +29°C° 0 mm 2 m/S 747 mmHg 42%
17:00 +29°C° 0 mm 2 m/S 747 mmHg 45%
18:00 +27°C° 0 mm 2 m/S 747 mmHg 55%
19:00 +25°C° 0 mm 2 m/S 747 mmHg 65%
20:00 +23°C° 0 mm 2 m/S 747 mmHg 75%
21:00 +20°C° 0 mm 2 m/S 747 mmHg 78%
22:00 +19°C° 0 mm 2 m/S 747 mmHg 81%
23:00 +18°C° 0 mm 2 m/S 748 mmHg 84%

20 Juni, Sonntag

Zeit Temperatur Niederschläge Wind Luftdruck Luftfeuchtigkeit
00:00 +18°C° 0 mm 2 m/S 748 mmHg 87%
01:00 +17°C° 0 mm 2 m/S 748 mmHg 89%
02:00 +18°C° 0 mm 1 m/S 748 mmHg 92%
03:00 +18°C° 0 mm 1 m/S 748 mmHg 90%
04:00 +19°C° 0 mm 1 m/S 748 mmHg 87%
05:00 +20°C° 0 mm 1 m/S 748 mmHg 85%
06:00 +22°C° 0 mm 1 m/S 748 mmHg 76%
07:00 +24°C° 0 mm 2 m/S 748 mmHg 68%
08:00 +25°C° 0 mm 2 m/S 748 mmHg 59%
09:00 +27°C° 0 mm 2 m/S 747 mmHg 54%
10:00 +28°C° 0 mm 2 m/S 747 mmHg 48%
11:00 +29°C° 0 mm 2 m/S 747 mmHg 42%
12:00 +29°C° 0 mm 2 m/S 747 mmHg 41%
13:00 +30°C° 0 mm 2 m/S 747 mmHg 39%
14:00 +31°C° 0 mm 2 m/S 746 mmHg 37%
15:00 +30°C° 0 mm 2 m/S 746 mmHg 39%
16:00 +30°C° 0 mm 2 m/S 746 mmHg 41%
17:00 +30°C° 0 mm 2 m/S 746 mmHg 43%
18:00 +28°C° 0 mm 2 m/S 746 mmHg 53%
19:00 +26°C° 0 mm 2 m/S 745 mmHg 64%
20:00 +24°C° 0 mm 2 m/S 745 mmHg 75%
21:00 +23°C° 0 mm 2 m/S 745 mmHg 79%
22:00 +21°C° 0 mm 2 m/S 746 mmHg 83%
23:00 +20°C° 0 mm 2 m/S 746 mmHg 87%

21 Juni, Montag

Zeit Temperatur Niederschläge Wind Luftdruck Luftfeuchtigkeit
00:00 +20°C° 0 mm 1 m/S 746 mmHg 89%
01:00 +20°C° 0 mm 1 m/S 746 mmHg 90%
02:00 +19°C° 0 mm 1 m/S 746 mmHg 92%
03:00 +20°C° 0 mm 1 m/S 746 mmHg 90%
04:00 +21°C° 0 mm 1 m/S 746 mmHg 87%
05:00 +20°C° 0 mm 0 m/S 746 mmHg 85%
06:00 +23°C° 0 mm 1 m/S 746 mmHg 78%
07:00 +25°C° 0 mm 1 m/S 746 mmHg 71%
08:00 +27°C° 0 mm 1 m/S 746 mmHg 63%
09:00 +28°C° 0 mm 1 m/S 746 mmHg 58%
10:00 +29°C° 0 mm 2 m/S 746 mmHg 52%
11:00 +30°C° 0 mm 2 m/S 745 mmHg 46%
12:00 +31°C° 0 mm 2 m/S 745 mmHg 45%
13:00 +31°C° 0 mm 3 m/S 745 mmHg 43%
14:00 +33°C° 0 mm 3 m/S 745 mmHg 41%
15:00 +31°C° 0 mm 3 m/S 745 mmHg 43%
16:00 +31°C° 0 mm 3 m/S 745 mmHg 46%
17:00 +30°C° 0 mm 3 m/S 744 mmHg 48%
18:00 +28°C° 0 mm 2 m/S 744 mmHg 57%
19:00 +26°C° 0 mm 2 m/S 744 mmHg 67%
20:00 +24°C° 0 mm 2 m/S 744 mmHg 76%
21:00 +23°C° 0 mm 2 m/S 744 mmHg 78%
22:00 +21°C° 0 mm 2 m/S 744 mmHg 81%
23:00 +20°C° 0 mm 2 m/S 744 mmHg 83%

22 Juni, Dienstag

Zeit Temperatur Niederschläge Wind Luftdruck Luftfeuchtigkeit
00:00 +19°C° 0 mm 2 m/S 744 mmHg 86%
01:00 +18°C° 0 mm 2 m/S 745 mmHg 88%
02:00 +18°C° 0 mm 2 m/S 745 mmHg 91%
03:00 +18°C° 0 mm 2 m/S 745 mmHg 90%
04:00 +19°C° 0 mm 2 m/S 745 mmHg 88%
05:00 +20°C° 0 mm 2 m/S 745 mmHg 87%
06:00 +23°C° 0 mm 2 m/S 745 mmHg 79%
07:00 +25°C° 0 mm 3 m/S 745 mmHg 70%
08:00 +27°C° 0 mm 3 m/S 745 mmHg 62%
09:00 +29°C° 0 mm 4 m/S 745 mmHg 56%
10:00 +30°C° 0 mm 4 m/S 745 mmHg 49%
11:00 +33°C° 0 mm 4 m/S 745 mmHg 43%
12:00 +33°C° 0 mm 4 m/S 745 mmHg 41%
13:00 +33°C° 0 mm 4 m/S 744 mmHg 39%
14:00 +34°C° 0 mm 4 m/S 744 mmHg 37%
15:00 +33°C° 0 mm 4 m/S 744 mmHg 39%
16:00 +33°C° 0 mm 4 m/S 744 mmHg 42%
17:00 +33°C° 0 mm 4 m/S 744 mmHg 44%
18:00 +29°C° 0 mm 3 m/S 744 mmHg 53%
19:00 +27°C° 0 mm 3 m/S 744 mmHg 62%
20:00 +25°C° 0 mm 2 m/S 744 mmHg 72%
21:00 +24°C° 0 mm 2 m/S 744 mmHg 75%
22:00 +23°C° 0 mm 2 m/S 744 mmHg 77%
23:00 +21°C° 0 mm 2 m/S 744 mmHg 80%
Mehr zeigen

Wir brauchen deine Erlaubnis

Meteoprog und unser Service Anbieter werden persönliche Daten aufbewahren, so wie Cookies, Geräte Bezeichnung oder ähnliche Technologien von deinem Gerät und Prozess, so wie Persönliche Daten Inhalte und Werbungen, genauso wie social Media und den Verkehr zu analysieren.

  • Aufbewahrung und/oder Zugang zu deiner Geräte Informationen.

    Cookies, Geräte Bezeichnung oder andere Informationen, können aufbewahrt oder Zugang zu deinem Gerät erhalten, für den Grund, der oben angegeben wird.

  • Personalisierte Werbung und Inhalte, Messungen, Einblick in das Publikum und Produkt Entwicklung.

    Werbungen und Inhalte können personalisiert werden, basierend auf ein Profil. Mehr Daten können besser personalisierte Werbungen und Inhalte hinzufügen. Werbung und Inhalte können gezeigt und gemessen werden. Einblicke über das Publikum, welche die Werbung gesehen haben und den Inhalt, können abgeleitet werden. So wie Daten können genutzt werden, um es zu verbessern oder die Benutzer Erfahrung zu verbessern das System und die Software.

Wenn du “Ich stimme zu” klickst, erlaubst du uns, die Cookies zu benutzen die Geräte Bezeichnung, den Web oder ähnliche Technologien zu benutzen. Deine Settings, können in deinem Gerät bei deinem Browser geändert werden.

Für den bestimmten Zweck, berechtigten Interessen beruhen darauf, mehr als auf den Inhalt. Du kannst mehr darüber in unseren Privaten und Cookie Politik lesen.